GJ7DNI-13 Weather Reports


time (UTC)temp
F
wind
direction
speed
knots
gust
knots
rain 1hr
in
rain 24hr
in
rain mn
in
humidity
%
barometer
mb
20260506031955 54 28 2.6 5.2 0.00 0.01 0.00 80 1009.8
20260506031455 54 14 3.5 6.1 0.00 0.01 0.00 80 1009.8
20260506030955 54 8 3.5 7.0 0.00 0.01 0.00 80 1009.8
20260506030455 54 12 3.5 6.1 0.00 0.01 0.00 80 1009.8
20260506025955 54 359 2.6 4.3 0.00 0.01 0.00 80 1009.8
20260506025455 54 23 3.5 5.2 0.00 0.01 0.00 81 1009.8
20260506024955 54 18 3.5 6.1 0.00 0.01 0.00 81 1009.8
20260506024455 54 22 3.5 5.2 0.00 0.01 0.00 81 1009.8
20260506023955 54 32 3.5 6.1 0.00 0.01 0.00 81 1009.7
20260506023455 54 9 3.5 5.2 0.00 0.01 0.00 82 1009.7
20260506022955 54 56 3.5 6.1 0.00 0.02 0.00 82 1009.8
20260506022455 54 40 3.5 6.1 0.00 0.02 0.00 82 1009.7
20260506021955 55 56 2.6 6.1 0.00 0.02 0.00 82 1009.7
20260506021455 55 37 2.6 3.5 0.00 0.02 0.00 82 1009.7
20260506020955 55 32 2.6 4.3 0.00 0.02 0.00 82 1009.7
20260506020455 55 46 2.6 4.3 0.00 0.02 0.00 82 1009.8
20260506015955 55 32 2.6 4.3 0.00 0.02 0.00 82 1009.8
20260506015455 55 10 2.6 4.3 0.00 0.02 0.00 83 1009.7
20260506014955 55 12 2.6 4.3 0.00 0.02 0.00 83 1009.7
20260506014455 55 359 2.6 5.2 0.00 0.02 0.00 83 1009.7
20260506013955 55 23 2.6 4.3 0.00 0.02 0.00 83 1009.7
20260506013455 55 359 2.6 4.3 0.00 0.02 0.00 82 1009.8
20260506012955 55 4 2.6 5.2 0.00 0.02 0.00 82 1009.8
20260506012455 55 359 2.6 7.0 0.00 0.02 0.00 82 1009.8
20260506011955 55 349 2.6 4.3 0.00 0.02 0.00 82 1009.8
20260506011455 55 324 1.7 4.3 0.00 0.02 0.00 82 1009.8
20260506010955 55 335 1.7 4.3 0.00 0.02 0.00 82 1009.8
20260506010455 55 348 2.6 4.3 0.00 0.02 0.00 82 1009.9
20260506005955 55 341 2.6 3.5 0.00 0.02 0.00 82 1009.9
20260506005455 55 339 2.6 6.1 0.00 0.02 0.00 82 1009.9
20260506004955 55 318 2.6 4.3 0.00 0.02 0.00 81 1009.9
20260506004455 55 318 2.6 4.3 0.00 0.02 0.00 82 1009.9
20260506003955 55 324 2.6 4.3 0.00 0.02 0.00 81 1009.9
20260506003455 55 337 2.6 4.3 0.00 0.02 0.00 81 1009.9
20260506002955 55 328 2.6 4.3 0.00 0.02 0.00 81 1010.0
20260506002455 55 333 2.6 5.2 0.00 0.02 0.00 81 1010.0
20260506001955 55 354 2.6 3.5 0.00 0.02 0.00 81 1010.1
20260506001455 55 338 2.6 5.2 0.00 0.02 0.00 81 1010.1
20260506000955 55 4 2.6 5.2 0.00 0.02 0.00 81 1010.1
20260506000455 55 324 3.5 5.2 0.00 0.02 0.00 81 1010.1
20260505235955 55 316 2.6 7.0 0.00 0.02 0.00 81 1010.1
20260505235455 55 332 2.6 4.3 0.00 0.02 0.00 80 1010.1
20260505234955 55 318 3.5 7.0 0.00 0.02 0.00 80 1010.1
20260505234455 55 314 3.5 5.2 0.00 0.02 0.00 80 1010.1
20260505233955 55 317 3.5 5.2 0.00 0.02 0.00 80 1010.1
20260505233455 55 321 2.6 7.0 0.00 0.02 0.00 80 1010.1
20260505232955 55 321 2.6 3.5 0.00 0.02 0.00 80 1010.1
20260505232455 55 313 2.6 7.0 0.00 0.02 0.00 80 1010.1
20260505231955 55 337 2.6 4.3 0.00 0.02 0.00 80 1010.2
20260505231455 55 311 2.6 6.1 0.00 0.02 0.00 80 1010.2
20260505230955 55 303 2.6 7.0 0.00 0.02 0.00 80 1010.2
20260505230455 55 310 2.6 5.2 0.00 0.02 0.02 80 1010.2
20260505225955 55 310 2.6 7.0 0.00 0.02 0.02 80 1010.2
20260505225455 55 318 2.6 6.1 0.00 0.02 0.02 80 1010.3
20260505224955 55 294 3.5 7.0 0.00 0.02 0.02 80 1010.3
20260505224455 55 307 2.6 5.2 0.00 0.02 0.02 80 1010.3
20260505223955 55 309 1.7 4.3 0.00 0.02 0.02 80 1010.4
20260505223455 55 318 1.7 4.3 0.00 0.02 0.02 80 1010.3
20260505222955 55 8 2.6 3.5 0.00 0.02 0.02 80 1010.3
20260505222455 55 322 2.6 6.1 0.00 0.02 0.02 80 1010.4
20260505221955 55 330 2.6 6.1 0.00 0.02 0.02 80 1010.4
20260505221455 55 4 2.6 4.3 0.00 0.02 0.02 79 1010.4
20260505220955 55 318 2.6 5.2 0.00 0.02 0.02 79 1010.4
20260505220455 56 312 2.6 4.3 0.00 0.02 0.02 79 1010.5
20260505215955 56 335 2.6 6.1 0.00 0.02 0.02 79 1010.4
20260505215455 56 318 2.6 5.2 0.00 0.02 0.02 79 1010.5
20260505214955 56 349 2.6 7.0 0.00 0.02 0.02 78 1010.6
20260505214455 56 338 2.6 4.3 0.00 0.02 0.02 78 1010.5
20260505213955 56 328 2.6 5.2 0.00 0.02 0.02 77 1010.6
20260505213455 56 349 2.6 6.1 0.00 0.02 0.02 77 1010.6
20260505212955 56 331 1.7 6.1 0.00 0.02 0.02 76 1010.6
20260505212455 56 319 2.6 4.3 0.00 0.02 0.02 76 1010.6
20260505211955 56 313 2.6 5.2 0.00 0.02 0.02 76 1010.7
20260505211455 56 308 2.6 5.2 0.00 0.02 0.02 76 1010.6
20260505210955 56 317 1.7 4.3 0.00 0.02 0.02 76 1010.6
20260505210455 56 339 1.7 4.3 0.00 0.02 0.02 76 1010.6
20260505205955 56 318 2.6 4.3 0.00 0.02 0.02 76 1010.6
20260505205455 56 330 2.6 4.3 0.00 0.02 0.02 75 1010.6
20260505204955 56 318 2.6 7.0 0.00 0.02 0.02 75 1010.7
20260505204455 56 339 1.7 5.2 0.00 0.02 0.02 75 1010.7
20260505203955 56 359 1.7 3.5 0.00 0.02 0.02 75 1010.6
20260505203455 56 337 1.7 3.5 0.00 0.02 0.02 75 1010.6
20260505202955 56 354 1.7 4.3 0.00 0.02 0.02 75 1010.6
20260505202455 56 330 2.6 3.5 0.00 0.02 0.02 74 1010.6
20260505201955 56 320 2.6 4.3 0.00 0.02 0.02 74 1010.5
20260505201455 56 4 2.6 3.5 0.00 0.02 0.02 74 1010.5
20260505200955 56 309 2.6 5.2 0.00 0.02 0.02 74 1010.4
20260505200455 56 354 2.6 5.2 0.00 0.02 0.02 74 1010.4
20260505195955 56 4 2.6 4.3 0.00 0.02 0.02 74 1010.3
20260505195455 56 316 2.6 5.2 0.00 0.02 0.02 73 1010.3
20260505194955 56 316 3.5 5.2 0.00 0.02 0.02 73 1010.2
20260505194455 56 318 2.6 5.2 0.00 0.02 0.02 73 1010.2
20260505193955 56 326 2.6 4.3 0.00 0.02 0.02 73 1010.2
20260505193455 56 4 2.6 7.0 0.00 0.02 0.02 73 1010.1
20260505192955 56 4 2.6 7.0 0.00 0.02 0.02 73 1010.1
20260505192455 56 325 2.6 7.0 0.00 0.02 0.02 73 1010.1
20260505191955 56 345 2.6 7.0 0.00 0.02 0.02 73 1010.1
20260505191455 57 354 3.5 7.0 0.00 0.02 0.02 73 1010.1
20260505190955 56 322 3.5 9.6 0.00 0.02 0.02 73 1010.1
20260505190455 56 310 3.5 5.2 0.00 0.02 0.02 73 1010.1
20260505185955 56 318 4.3 8.7 0.00 0.02 0.02 73 1010.0
20260505185456 57 322 5.2 9.6 0.00 0.02 0.02 73 1010.0
20260505184955 57 4 5.2 11.3 0.00 0.02 0.02 72 1009.9
20260505184456 57 317 5.2 8.7 0.00 0.02 0.02 72 1009.9
20260505183956 57 317 5.2 9.6 0.00 0.02 0.02 72 1009.8
20260505183456 57 300 4.3 7.8 0.00 0.02 0.02 72 1009.8
20260505182956 57 336 4.3 12.2 0.00 0.02 0.02 71 1009.8
20260505182456 57 326 3.5 6.1 0.00 0.02 0.02 71 1009.8
20260505181956 57 318 4.3 8.7 0.00 0.02 0.02 71 1009.7
20260505181456 57 322 5.2 9.6 0.00 0.02 0.02 71 1009.7
20260505180956 57 336 6.1 12.2 0.00 0.02 0.02 71 1009.7
20260505180456 57 314 6.1 12.2 0.00 0.02 0.02 71 1009.7
20260505175956 57 341 6.1 11.3 0.00 0.02 0.02 71 1009.6
20260505175456 57 328 7.0 13.0 0.00 0.02 0.02 71 1009.7
20260505174956 57 310 6.1 11.3 0.00 0.02 0.02 72 1009.8
20260505174456 57 314 6.1 11.3 0.00 0.02 0.02 73 1009.7
20260505173956 57 318 5.2 11.3 0.00 0.02 0.02 74 1009.8
20260505173456 57 271 5.2 12.2 0.00 0.02 0.02 75 1009.7
20260505172956 57 318 6.1 10.4 0.00 0.02 0.02 76 1009.7
20260505172456 57 14 6.1 15.6 0.00 0.02 0.02 76 1009.7
20260505171956 57 314 6.1 9.6 0.00 0.02 0.02 76 1009.7
20260505171456 57 14 5.2 12.2 0.00 0.02 0.02 76 1009.8
20260505170956 57 333 6.1 12.2 0.00 0.02 0.02 75 1009.8
20260505170456 57 316 6.1 12.2 0.00 0.02 0.02 75 1009.9
20260505165956 57 328 4.3 11.3 0.00 0.02 0.02 74 1009.9
20260505165456 58 304 4.3 9.6 0.00 0.02 0.02 73 1009.8
20260505164956 58 30 4.3 8.7 0.00 0.02 0.02 72 1009.9
20260505164456 58 348 4.3 11.3 0.00 0.02 0.02 71 1009.8
20260505163956 58 4 5.2 9.6 0.00 0.02 0.02 72 1009.8
20260505163456 58 312 6.1 11.3 0.00 0.02 0.02 72 1009.8
20260505162956 58 348 7.0 11.3 0.00 0.02 0.02 72 1009.8
20260505162456 58 25 7.0 13.0 0.00 0.02 0.02 72 1009.7
20260505161956 57 4 6.1 13.0 0.00 0.02 0.02 71 1009.7
20260505161456 58 9 5.2 8.7 0.00 0.02 0.02 72 1009.6
20260505160956 58 13 5.2 11.3 0.00 0.02 0.02 72 1009.7
20260505160456 58 359 6.1 9.6 0.00 0.02 0.02 72 1009.6
20260505152956 58 319 7.0 13.0 0.00 0.02 0.02 72 1009.7
20260505152456 58 12 6.1 10.4 0.00 0.02 0.02 73 1009.7
20260505151956 58 24 7.0 11.3 0.00 0.02 0.02 73 1009.7
20260505151456 58 18 7.0 13.0 0.00 0.02 0.02 74 1009.8
20260505150956 58 9 7.0 12.2 0.00 0.02 0.02 74 1009.7
20260505150456 58 341 7.0 13.0 0.00 0.02 0.02 74 1009.8
20260505140456 57 344 8.7 15.6 0.00 0.02 0.02 78 1009.8
20260505124956 56 324 5.2 9.6 0.00 0.02 0.02 81 1010.1
20260505124456 56 54 6.1 13.0 0.00 0.02 0.02 81 1010.1
20260505123956 56 31 5.2 11.3 0.00 0.02 0.02 82 1010.1
20260505123456 56 359 4.3 7.8 0.01 0.02 0.02 83 1010.0
20260505122956 56 27 4.3 8.7 0.01 0.02 0.02 83 1010.0
20260505122456 55 13 3.5 8.7 0.01 0.02 0.02 83 1010.0
20260505121956 55 321 4.3 9.6 0.01 0.02 0.02 83 1010.1
20260505121456 55 4 4.3 10.4 0.01 0.02 0.02 83 1010.0
20260505120956 55 330 3.5 8.7 0.01 0.02 0.02 83 1010.1
20260505120456 55 27 4.3 7.8 0.01 0.02 0.02 83 1010.1
20260505115956 55 16 4.3 7.8 0.01 0.02 0.02 83 1010.2
20260505115456 56 23 4.3 9.6 0.01 0.02 0.02 83 1010.2
20260505114956 56 33 4.3 9.6 0.01 0.02 0.02 83 1010.2
20260505114456 56 347 2.6 8.7 0.01 0.02 0.02 83 1010.2
20260505113956 56 27 2.6 7.0 0.01 0.02 0.02 83 1010.2
20260505113456 56 50 2.6 6.1 0.00 0.01 0.01 82 1010.2
20260505112956 56 36 2.6 7.0 0.00 0.01 0.01 82 1010.3
20260505112456 56 55 2.6 5.2 0.00 0.01 0.01 82 1010.3
20260505111956 56 73 3.5 6.1 0.00 0.01 0.01 82 1010.3
20260505111456 56 60 3.5 8.7 0.00 0.01 0.01 81 1010.3
20260505110956 56 33 3.5 7.8 0.00 0.01 0.01 81 1010.3
20260505110456 56 16 3.5 7.8 0.00 0.01 0.01 81 1010.4
20260505110243 57 26 0.9 2.6 0.00 0.00 0.00 80 1012.0
20260505101956 57 359 4.3 8.7 0.00 0.01 0.01 78 1010.3
20260505101456 57 354 4.3 7.8 0.00 0.01 0.01 78 1010.3
20260505100956 57 10 2.6 7.8 0.00 0.01 0.01 79 1010.2
20260505100457 57 54 2.6 6.1 0.00 0.01 0.01 79 1010.2
20260505095956 57 25 3.5 7.0 0.00 0.01 0.01 80 1010.3
20260505095456 57 346 5.2 9.6 0.00 0.01 0.01 79 1010.3
20260505094956 56 31 4.3 9.6 0.00 0.01 0.01 80 1010.2
20260505094456 56 354 4.3 8.7 0.00 0.01 0.01 80 1010.2
20260505093956 56 14 4.3 8.7 0.00 0.01 0.01 81 1010.2
20260505093456 56 16 5.2 8.7 0.00 0.01 0.01 81 1010.2
20260505092956 56 49 5.2 9.6 0.00 0.01 0.01 81 1010.2
20260505092456 56 15 4.3 9.6 0.00 0.01 0.01 82 1010.2
20260505091956 56 20 3.5 7.8 0.00 0.01 0.01 82 1010.1
20260505091456 56 16 2.6 5.2 0.00 0.01 0.01 82 1010.1
20260505090956 56 33 3.5 8.7 0.00 0.01 0.01 82 1010.1
20260505090456 56 359 4.3 8.7 0.00 0.01 0.01 82 1010.1
20260505085956 56 18 6.1 10.4 0.00 0.01 0.01 82 1010.1
20260505085457 56 51 5.2 9.6 0.00 0.01 0.01 82 1010.0
20260505084956 56 50 5.2 10.4 0.00 0.01 0.01 82 1010.1
20260505084457 56 8 5.2 10.4 0.00 0.01 0.01 82 1010.2
20260505083957 56 359 6.1 11.3 0.00 0.01 0.01 83 1010.2
20260505083457 55 4 5.2 11.3 0.00 0.01 0.01 83 1010.2
20260505082957 55 42 4.3 7.8 0.00 0.01 0.01 83 1010.1
20260505082457 55 17 4.3 8.7 0.00 0.01 0.01 84 1010.0
20260505081957 55 337 4.3 7.0 0.00 0.01 0.01 84 1010.1
20260505081457 55 330 5.2 12.2 0.00 0.01 0.01 84 1010.1
20260505080957 55 359 5.2 11.3 0.00 0.01 0.01 84 1010.1
20260505080457 55 18 4.3 10.4 0.00 0.01 0.01 84 1010.1
20260505075957 55 312 3.5 8.7 0.00 0.01 0.01 84 1010.2
20260505075457 55 4 4.3 7.8 0.00 0.01 0.01 84 1010.2
20260505074957 55 19 3.5 8.7 0.00 0.01 0.01 84 1010.1
20260505074457 55 15 4.3 8.7 0.00 0.01 0.01 84 1010.1
20260505073957 55 18 4.3 12.2 0.00 0.01 0.01 84 1010.1
20260505073457 55 359 3.5 6.1 0.00 0.01 0.01 84 1010.0
20260505072957 55 28 3.5 8.7 0.00 0.01 0.01 84 1010.0
20260505072457 55 359 3.5 5.2 0.00 0.01 0.01 84 1010.0
20260505071957 55 41 3.5 8.7 0.00 0.01 0.01 84 1010.1
20260505071457 55 13 4.3 7.8 0.00 0.01 0.01 84 1010.2
20260505070957 55 29 4.3 8.7 0.00 0.01 0.01 85 1010.2
20260505070457 55 66 4.3 7.0 0.00 0.01 0.01 85 1010.2
20260505065957 55 39 4.3 8.7 0.00 0.01 0.01 85 1010.1
20260505065457 54 15 5.2 9.6 0.00 0.01 0.01 85 1010.2
20260505064957 54 56 6.1 10.4 0.00 0.01 0.01 85 1010.2
20260505064457 54 13 6.1 8.7 0.00 0.01 0.01 85 1010.1
20260505063957 54 21 5.2 11.3 0.00 0.01 0.01 85 1010.1
20260505063457 54 14 4.3 9.6 0.00 0.01 0.01 86 1010.1
20260505062957 54 21 4.3 7.8 0.00 0.01 0.01 86 1010.1
20260505062457 54 21 5.2 10.4 0.00 0.01 0.01 86 1010.1
20260505061957 54 14 5.2 10.4 0.00 0.01 0.01 86 1010.1
20260505061457 54 4 5.2 9.6 0.00 0.01 0.01 86 1010.1
20260505060957 54 16 5.2 11.3 0.00 0.01 0.01 86 1010.0
20260505060457 54 37 5.2 11.3 0.00 0.01 0.01 86 1010.0
20260505055957 54 34 5.2 7.8 0.00 0.01 0.01 86 1010.0
20260505055457 54 8 6.1 11.3 0.00 0.01 0.01 86 1010.1
20260505054957 54 45 4.3 9.6 0.00 0.01 0.01 86 1010.1
20260505054457 54 359 3.5 10.4 0.00 0.01 0.01 86 1010.1
20260505053957 54 343 2.6 6.1 0.00 0.01 0.01 87 1010.1
20260505053457 54 14 2.6 6.1 0.00 0.01 0.01 87 1010.1
20260505052957 54 27 2.6 7.8 0.00 0.01 0.01 87 1010.1
20260505052457 54 27 2.6 5.2 0.00 0.01 0.01 87 1010.1
20260505051957 54 10 3.5 7.0 0.00 0.01 0.01 87 1010.0
20260505051457 54 81 3.5 7.8 0.00 0.01 0.01 87 1010.0
20260505050957 54 10 3.5 7.0 0.00 0.01 0.01 87 1010.0
20260505050457 54 20 4.3 8.7 0.00 0.01 0.01 87 1010.1
20260505041457 54 25 3.5 10.4 0.01 0.01 0.01 87 1010.1
20260505040957 54 27 2.6 7.0 0.01 0.01 0.01 86 1010.2
20260505040457 54 37 2.6 7.0 0.01 0.01 0.01 87 1010.2
20260505035957 54 29 3.5 6.1 0.01 0.01 0.01 86 1010.2
20260505035457 54 27 4.3 11.3 0.01 0.01 0.01 86 1010.3
20260505034957 55 60 3.5 8.7 0.01 0.01 0.01 86 1010.3
20260505034457 55 71 3.5 7.8 0.01 0.01 0.01 86 1010.3
20260505033957 55 48 3.5 10.4 0.01 0.01 0.01 86 1010.3
20260505033457 55 14 3.5 9.6 0.01 0.01 0.01 86 1010.3
20260505032957 55 30 3.5 7.8 0.01 0.01 0.01 86 1010.2
20260505032457 55 50 4.3 7.8 0.01 0.01 0.01 86 1010.2